[[{"header":{"parameterUnit":"m.s-1","parameterCategory":1,"la1":30.2991,"la2":30.254,"lo1":-89.0895,"lo2":-89.0444,"dy":0.0017,"dx":0.0017,"nx":28,"ny":28,"refTime":"2024-05-12T09:00:00:Z","depth":0,"parameterNumber":2,"parameterNumberName":"U-component_of_WINDS"},"data":[0,0,0,0,0,0,0,0,0,0,0,0,0,0,0,0,0,0,0,0,0,0,0,0,0,0,0,0,0,0,0,0,0,0,0,0,0,0,0,0,0,0,0,0,0,0,0,0,0,0,0,0,0,0,0,0,0,0,1.6768,1.6768,0,1.6777,1.6777,1.6777,1.6743,1.6742,1.6741,1.674,1.675,1.6751,1.6752,0,0,0,0,0,0,0,0,0,0,0,0,0,1.672,1.6721,1.6768,1.6768,1.6768,1.6777,1.6777,1.6777,1.6743,1.6742,1.6741,1.674,1.6749,1.6751,1.6752,0,0,0,0,0,0,0,0,0,0,0,0,0,1.6736,1.6722,1.6768,1.6752,1.6751,1.6777,1.6777,1.6777,1.6744,1.6742,1.6741,1.6739,1.6749,1.675,1.6752,1.6794,0,0,1.6758,1.6758,0,0,0,0,0,0,0,0,1.6736,1.6738,1.6754,1.6753,1.6752,1.6757,1.6764,1.6783,1.6744,1.6746,1.674,1.6739,1.6753,1.6755,1.676,1.6794,1.6794,1.6758,1.6759,1.676,1.676,0,0,0,0,0,0,0,1.6734,1.6738,1.6771,1.6755,1.6753,1.6745,1.6745,1.6767,1.6758,1.6746,1.6744,1.6745,1.6752,1.6758,1.676,1.6795,1.6758,1.6759,1.676,1.6761,1.6862,1.6864,0,0,0,0,0,0,1.6735,1.6737,1.6771,1.6772,1.674,1.6747,1.6747,1.6757,1.6758,1.6757,1.6747,1.6744,1.6756,1.6758,1.676,1.6808,1.676,1.6761,1.6762,1.6861,1.6863,1.6865,0,0,0,0,0,0,1.6735,1.6739,1.6771,1.6754,1.6757,1.6749,1.676,1.6758,1.6764,1.6758,1.6757,1.6754,1.6755,1.6757,1.6785,1.6808,1.6762,1.6764,1.6859,1.6861,1.6864,1.6904,0,0,0,0,0,0,1.6733,1.6739,1.6754,1.6754,1.6758,1.6796,1.6762,1.6759,1.6767,1.6763,1.6765,1.6764,1.6754,1.6783,1.6787,1.6809,1.6765,1.6857,1.686,1.6863,1.6901,1.6908,1.6914,0,0,0,0,0,1.6732,1.6766,1.6755,1.676,1.6778,1.6798,1.68,1.6788,1.6769,1.6785,1.6781,1.6764,1.6805,1.6786,1.679,1.6814,1.6855,1.6859,1.6863,1.6898,1.6906,1.6914,0,0,0,0,0,0,1.6769,1.6765,1.6754,1.6789,1.6794,1.6792,1.6811,1.6797,1.6807,1.6803,1.6788,1.6789,1.6819,1.6819,1.6798,1.6853,1.6827,1.6832,1.6852,1.686,1.6866,1.6865,1.6767,0,0,0,0,0,1.6781,1.6797,1.6794,1.6825,1.6828,1.6819,1.6827,1.6818,1.6822,1.6824,1.6822,1.6827,1.6841,1.6851,1.6863,1.6901,1.69,1.6919,1.6925,1.6931,1.6935,1.6954,1.6962,1.6877,1.6877,1.6876,0,0,1.6806,1.6806,1.6818,1.6832,1.6835,1.6852,1.6821,1.6841,1.6853,1.6827,1.6853,1.6852,1.6857,1.6889,1.6904,1.689,1.6958,1.6935,1.694,1.6941,1.6959,1.6967,1.6974,1.6879,1.6879,1.6878,0,0,1.6861,1.6863,1.6889,1.6892,1.6897,1.6891,1.6897,1.6897,1.6895,1.6921,1.6902,1.6917,1.6941,1.6945,1.695,1.7006,1.699,1.7011,1.7044,1.7063,1.707,1.7075,1.7095,1.7102,1.7015,1.7015,1.7015,0,1.6892,1.6917,1.6904,1.6925,1.6931,1.6909,1.6934,1.6938,1.6947,1.6952,1.6936,1.6966,1.6968,1.7001,1.7014,1.702,1.7026,1.701,1.707,1.7076,1.7081,1.7099,1.7107,1.7017,1.7017,1.7017,1.7017,0,1.6954,1.6972,1.6993,1.7001,1.701,1.7034,1.7024,1.7034,1.7024,1.702,1.7046,1.7047,1.7059,1.7066,1.7056,1.7098,1.7089,1.7072,1.7045,1.7092,1.7108,1.7115,1.7021,1.702,1.7019,1.7019,0,0,1.7032,1.7033,1.7041,1.7044,1.7047,1.7061,1.7083,1.7095,1.7104,1.7111,1.7129,1.715,1.7134,1.714,1.713,1.7147,1.7191,1.7128,1.7128,1.7139,1.7236,1.7248,1.7256,1.718,1.7182,1.7183,1.7235,0,1.7085,1.7123,1.7112,1.715,1.7166,1.7145,1.7164,1.7168,1.7164,1.7177,1.7173,1.7188,1.7167,1.717,1.7186,1.7182,1.721,1.7178,1.7196,1.7197,1.7195,1.7265,1.7278,1.7328,1.7242,1.7243,1.7244,0,1.7152,1.7162,1.7201,1.7201,1.7208,1.7225,1.7235,1.7248,1.7252,1.7248,1.7255,1.7241,1.7263,1.7236,1.7265,1.7244,1.7251,1.725,1.7252,1.7252,1.7223,1.7267,1.7343,1.735,1.7254,1.7253,1.7252,0,1.7204,1.7227,1.7253,1.7257,1.7258,1.7271,1.7272,1.7274,1.7282,1.729,1.7295,1.7306,1.7312,1.7321,1.7311,1.7292,1.7341,1.7314,1.7338,1.7338,1.7349,1.7348,1.7426,1.7355,1.7355,1.7354,1.7354,0,1.7265,1.7289,1.7276,1.7293,1.732,1.7307,1.7334,1.7332,1.7335,1.735,1.7332,1.7347,1.7333,1.7347,1.7339,1.7364,1.7367,1.7364,1.7362,1.7365,1.7366,1.7369,1.7365,1.7356,1.7356,1.7356,1.7355,0,1.7327,1.7319,1.7346,1.7345,1.7345,1.7365,1.7364,1.7379,1.7374,1.7394,1.7398,1.739,1.7405,1.7396,1.7411,1.7406,1.7438,1.7432,1.7437,1.7435,1.746,1.7457,1.7542,1.7552,1.7475,1.7476,1.7476,0,1.7365,1.7384,1.7385,1.7394,1.7396,1.7411,1.7418,1.7406,1.7415,1.7421,1.7435,1.7448,1.7458,1.7483,1.7479,1.749,1.7483,1.7512,1.7485,1.7487,1.7483,1.7481,1.7483,1.7517,1.7518,1.7519,1.752,0,1.7434,1.7429,1.7441,1.7452,1.7462,1.747,1.7476,1.7484,1.7472,1.7483,1.7498,1.7506,1.7521,1.7534,1.7544,1.7545,1.753,1.7528,1.7534,1.7538,1.754,1.7538,1.7451,1.7526,1.7526,1.7525,1.7525,1.7524,1.7485,1.75,1.7503,1.7517,1.7521,1.7527,1.7541,1.7538,1.755,1.7561,1.7554,1.7571,1.7574,1.7586,1.7588,1.7602,1.759,1.7599,1.7601,1.7603,1.7606,1.7539,1.7604,1.7603,1.7603,1.7603,1.7603,0,1.7552,1.7553,1.7566,1.7575,1.7586,1.7572,1.7578,1.7588,1.7604,1.7608,1.7618,1.7635,1.7648,1.7645,1.7656,1.7668,1.7661,1.7671,1.7669,1.767,1.7617,1.761,1.7676,1.7676,1.7676,1.7676,1.7676,1.7676,1.7588,1.7613,1.7609,1.7636,1.7636,1.7653,1.7658,1.7663,1.7667,1.7687,1.7697,1.7695,1.7696,1.7708,1.7719,1.7717,1.7722,1.7734,1.7731,1.7681,1.7674,1.7667,1.766,1.7736,1.7736,1.7782,1.7783,1.7783]},{"header":{"parameterUnit":"m.s-1","parameterCategory":1,"la1":30.2991,"la2":30.254,"lo1":-89.0895,"lo2":-89.0444,"dy":0.0017,"dx":0.0017,"nx":28,"ny":28,"refTime":"2024-05-12T09:00:00:Z","depth":0,"parameterNumber":3,"parameterNumberName":"V-component_of_WINDS"},"data":[0,0,0,0,0,0,0,0,0,0,0,0,0,0,0,0,0,0,0,0,0,0,0,0,0,0,0,0,0,0,0,0,0,0,0,0,0,0,0,0,0,0,0,0,0,0,0,0,0,0,0,0,0,0,0,0,0,0,6.1459,6.146,0,6.16,6.1601,6.1603,6.1624,6.1623,6.1622,6.162,6.176,6.1765,6.177,0,0,0,0,0,0,0,0,0,0,0,0,0,6.1205,6.1209,6.1459,6.1461,6.1462,6.1599,6.1601,6.1603,6.1624,6.1623,6.1621,6.162,6.1759,6.1764,6.177,0,0,0,0,0,0,0,0,0,0,0,0,0,6.1327,6.1211,6.1459,6.149,6.1494,6.1599,6.1601,6.1604,6.1625,6.1623,6.1621,6.1619,6.1757,6.1764,6.1771,6.1854,0,0,6.1794,6.1797,0,0,0,0,0,0,0,0,6.132,6.1336,6.1483,6.1488,6.1492,6.1593,6.1563,6.1688,6.1625,6.1575,6.162,6.1618,6.1706,6.1717,6.1747,6.1861,6.1867,6.1794,6.1799,6.1802,6.1804,0,0,0,0,0,0,0,6.1312,6.1331,6.1514,6.1485,6.1491,6.1495,6.1511,6.1587,6.1649,6.1579,6.1581,6.1598,6.1708,6.174,6.1751,6.1869,6.1794,6.18,6.1805,6.1808,6.2059,6.2061,0,0,0,0,0,0,6.1298,6.1323,6.151,6.1519,6.14,6.1501,6.1519,6.1562,6.1648,6.166,6.1599,6.1598,6.1729,6.1742,6.1756,6.1861,6.1802,6.1809,6.1813,6.2057,6.206,6.2062,0,0,0,0,0,0,6.1293,6.1315,6.1504,6.1422,6.1446,6.1508,6.1557,6.1566,6.1599,6.1663,6.1674,6.1621,6.1728,6.1746,6.183,6.1866,6.1812,6.1819,6.2054,6.2058,6.2061,6.2069,0,0,0,0,0,0,6.1285,6.1313,6.1345,6.1422,6.1451,6.1577,6.1559,6.157,6.1612,6.1612,6.1687,6.1698,6.1728,6.1819,6.1838,6.1875,6.1824,6.2051,6.2056,6.206,6.2066,6.2073,6.2078,0,0,0,0,0,6.1276,6.1341,6.1347,6.1369,6.1493,6.1579,6.1595,6.163,6.1614,6.1648,6.169,6.1695,6.1859,6.1828,6.1849,6.1888,6.2049,6.2055,6.206,6.2064,6.2071,6.2078,0,0,0,0,0,0,6.1264,6.1351,6.1359,6.1451,6.1508,6.1583,6.1626,6.1637,6.1698,6.1695,6.1734,6.1751,6.1834,6.187,6.1834,6.1974,6.1953,6.1962,6.1948,6.1957,6.1962,6.1952,6.183,0,0,0,0,0,6.1272,6.1336,6.1408,6.1482,6.1511,6.1563,6.1602,6.1624,6.1684,6.1708,6.1756,6.1813,6.1877,6.1918,6.1981,6.2071,6.2089,6.2109,6.2115,6.2119,6.2127,6.218,6.219,6.2079,6.2079,6.2079,0,0,6.1289,6.1345,6.1382,6.1481,6.1528,6.1593,6.1583,6.1651,6.17,6.1717,6.1802,6.1839,6.1905,6.1993,6.2035,6.2025,6.2162,6.2126,6.2129,6.2135,6.2186,6.2197,6.2206,6.2083,6.2082,6.2081,0,0,6.1354,6.1402,6.147,6.1518,6.159,6.1625,6.1641,6.1715,6.1741,6.1826,6.1842,6.1899,6.2009,6.2056,6.2094,6.2179,6.2187,6.2198,6.223,6.228,6.2289,6.2297,6.2329,6.2339,6.2206,6.2206,6.2206,0,6.1366,6.1466,6.1503,6.1572,6.1616,6.1636,6.1705,6.1749,6.1837,6.1866,6.1855,6.1995,6.204,6.2141,6.2162,6.2192,6.2212,6.219,6.2285,6.2293,6.2301,6.2332,6.2344,6.2207,6.2207,6.2207,6.2207,0,6.1477,6.1546,6.1592,6.168,6.1728,6.1796,6.1843,6.1887,6.1906,6.1941,6.2029,6.2085,6.216,6.2185,6.2202,6.2289,6.2282,6.2277,6.2256,6.2312,6.2342,6.2354,6.2208,6.2208,6.2208,6.2207,0,0,6.1538,6.1647,6.1663,6.1704,6.1785,6.1839,6.1908,6.1984,6.2022,6.2081,6.2141,6.2235,6.2232,6.2275,6.2298,6.2342,6.2408,6.2333,6.2335,6.2346,6.2509,6.2513,6.2526,6.2414,6.2416,6.2418,6.2504,0,6.1614,6.174,6.1777,6.1883,6.1948,6.1969,6.203,6.2086,6.2122,6.2181,6.222,6.2287,6.2277,6.2304,6.2348,6.2391,6.2442,6.2385,6.247,6.2473,6.2454,6.2541,6.2545,6.2624,6.2516,6.2518,6.2519,0,6.1719,6.1784,6.1897,6.1973,6.2001,6.2055,6.2129,6.2185,6.2249,6.2272,6.2322,6.2342,6.2415,6.239,6.2491,6.2452,6.2489,6.2515,6.2519,6.2529,6.25,6.2555,6.2649,6.2662,6.2537,6.2536,6.2535,0,6.1754,6.1869,6.1953,6.1986,6.2076,6.2114,6.2152,6.2215,6.2259,6.2322,6.2351,6.2422,6.2461,6.2514,6.2553,6.253,6.2652,6.2629,6.2673,6.2673,6.2698,6.2697,6.2802,6.272,6.272,6.272,6.2719,0,6.1835,6.1904,6.197,6.2021,6.2099,6.214,6.2216,6.2255,6.2311,6.2371,6.2392,6.2447,6.2494,6.2555,6.2585,6.2666,6.2682,6.2703,6.271,6.2702,6.27,6.2727,6.2723,6.2723,6.2722,6.2721,6.2721,0,6.1887,6.1934,6.2027,6.2105,6.2126,6.2181,6.2247,6.2298,6.2334,6.2409,6.2429,6.2487,6.256,6.2603,6.2695,6.2715,6.2805,6.2809,6.2784,6.2788,6.283,6.2826,6.2958,6.2978,6.2881,6.2882,6.2883,0,6.1937,6.1991,6.2076,6.2118,6.2158,6.2225,6.2271,6.2313,6.2359,6.2438,6.2479,6.2554,6.2617,6.2733,6.2782,6.2853,6.286,6.2901,6.2871,6.2861,6.2863,6.286,6.2866,6.2907,6.2908,6.2908,6.2909,0,6.2021,6.2042,6.2107,6.2182,6.2237,6.2297,6.2356,6.2389,6.2441,6.2493,6.2569,6.2617,6.2713,6.2787,6.2863,6.2902,6.2915,6.2918,6.2933,6.2925,6.2909,6.292,6.28,6.2915,6.2914,6.2914,6.2914,6.2913,6.2074,6.2124,6.2193,6.2266,6.2315,6.2371,6.2424,6.2468,6.2533,6.2615,6.2635,6.2716,6.278,6.2883,6.2924,6.2987,6.2981,6.3001,6.3006,6.3011,6.3013,6.2898,6.3001,6.3001,6.3001,6.3001,6.3001,0,6.2161,6.2206,6.2273,6.2357,6.2415,6.2423,6.249,6.2538,6.2609,6.2668,6.273,6.2818,6.2891,6.2947,6.3022,6.3062,6.307,6.308,6.3078,6.3088,6.3014,6.2995,6.3073,6.3073,6.3073,6.3073,6.3073,6.3073,6.2212,6.2298,6.2327,6.2438,6.2483,6.2563,6.2601,6.2653,6.2701,6.2799,6.2861,6.2897,6.2956,6.3035,6.3103,6.3117,6.3144,6.3154,6.317,6.31,6.3092,6.3085,6.3068,6.3159,6.3159,6.3239,6.3239,6.324]}]]